Home   Weather   Harare   Past weeks

Flag for Zimbabwe Past Weather in Harare, Zimbabwe — Yesterday and Last 2 Weeks

Now
66 °F

Clear.


Feels Like: 66 °F
Forecast: 61 / 79 °F
Wind: 5 mph from Northeast

Location: Harare Kutsaga Airport

Current Time: Dec 4, 2016 at 4:11:18 am

Latest Report: Dec 4, 2016 at 2:00 am


Visibility: 10 mi

Pressure: 30.18 "Hg (25.35 "Hg at 1490m altitude)

Humidity: 83%

Dew Point: 61 °F

Location of HarareLocation

Past Weather in Harare — Graph

°F

Harare Temperature Yesterday

Maximum temperature yesterday: 82 °F (at 2:00 pm)
Minimum temperature yesterday: 68 °F (at 12:00 am)
Average temperature yesterday: 73 °F

High & Low Weather Summary for the Past Weeks

 TemperatureHumidityPressure
High88 °F (Dec 1, 1:00 pm)100% (Nov 21, 12:00 am)30.27 "Hg (Nov 21, 12:00 am)
Low59 °F (Nov 24, 5:00 am)17% (Dec 1, 5:00 pm)30.04 "Hg (Nov 25, 2:00 pm)
Average71 °F67%30.17 "Hg
* Reported Nov 19 2:00 am — Dec 4 2:00 am, Harare, Weather by CustomWeather, © 2016

Note: Actual official high and low records may vary slightly from our data, if they occured in-between our weather recording intervals... More about our weather records

Advertising

Harare Weather History for the Previous 24 Hours

Scroll right to see more
 ConditionsComfort  
Time TempWeatherWind HumidityBarometerVisibility
2:00 am
Sun, Dec 4
66 °FClear.5 mph83%30.18 "Hg10 mi
1:00 am66 °FClear.7 mph83%30.18 "Hg10 mi
12:00 am68 °FClear.6 mph83%30.21 "Hg10 mi
11:00 pm
Sat, Dec 3
70 °FClear.9 mph78%30.18 "Hg10 mi
10:00 pm70 °FClear.9 mph78%30.21 "Hg10 mi
9:00 pm73 °FClear.16 mph69%30.18 "Hg10 mi
8:00 pm72 °FPassing clouds.5 mph83%30.15 "HgN/A
7:00 pm72 °FPassing clouds.5 mph83%30.15 "HgN/A
6:00 pm72 °FThunderstorms. Broken clouds.No wind83%30.12 "HgN/A
5:00 pm70 °FThunderstorms. Broken clouds.8 mph78%30.12 "HgN/A
3:00 pm82 °FScattered clouds.6 mph45%30.15 "HgN/A
2:00 pm82 °FPassing clouds.7 mph45%30.18 "HgN/A
1:00 pm81 °FPassing clouds.9 mph48%30.21 "HgN/A
12:00 pm79 °FPartly sunny.13 mph51%30.21 "HgN/A
11:00 am79 °FPartly sunny.13 mph54%30.24 "HgN/A
10:00 am77 °FPartly sunny.20 mph54%30.24 "HgN/A
9:00 am73 °FScattered clouds.15 mph69%30.24 "HgN/A
8:00 am72 °FScattered clouds.13 mph73%30.24 "HgN/A
7:00 am70 °FPartly sunny.15 mph78%30.21 "HgN/A
6:00 am70 °FSunny.12 mph73%30.18 "Hg10 mi
5:00 am68 °FClear.13 mph73%30.15 "Hg10 mi
4:00 am68 °FClear.12 mph69%30.15 "Hg10 mi
Weather by CustomWeather, © 2016

See weather overviewHow to use our weather pages